KLM1972 LDSP-EHAM

Flight info

Callsign KLM1972
Flight time 2h 5m
Altitude 38000
Route SIRMI DCT GORPA DCT LIMRA DCT LAMSI DCT RUDNO DCT MAPOX DCT NORKU
Aircraft B738/M-SDE2E3FGHIRWXY/LB1

Departure

Time 2026-04-27 11:00
Airport Split Saint Jerome Airport (LDSP)

Arrival

Time 2026-04-27 13:06
Airport Amsterdam Airport Schiphol (EHAM)
Time Latitude Longitude Altitude Speed Heading
2026-04-27 10:11 43.53761 16.29943 67 ft 0 kts 114°
2026-04-27 10:49 43.53760 16.29944 67 ft 0 kts 115°
2026-04-27 10:53 43.53760 16.29945 67 ft 0 kts 115°
2026-04-27 10:54 43.53761 16.29958 62 ft 2 kts 71°
2026-04-27 10:54 43.53778 16.29953 67 ft 3 kts 302°
2026-04-27 10:54 43.53780 16.29892 63 ft 10 kts 272°
2026-04-27 10:55 43.53756 16.29788 60 ft 6 kts 233°
2026-04-27 10:55 43.53753 16.29783 61 ft 0 kts 233°
2026-04-27 10:55 43.53752 16.29782 61 ft 1 kts 233°
2026-04-27 10:56 43.53737 16.29755 67 ft 7 kts 232°
2026-04-27 10:56 43.53699 16.29686 67 ft 11 kts 232°
2026-04-27 10:56 43.53684 16.29584 67 ft 12 kts 301°
2026-04-27 10:56 43.53695 16.29474 75 ft 12 kts 255°
2026-04-27 10:57 43.53660 16.29374 82 ft 12 kts 234°
2026-04-27 10:57 43.53604 16.29274 83 ft 15 kts 233°
2026-04-27 10:57 43.53534 16.29145 71 ft 18 kts 232°
2026-04-27 10:57 43.53455 16.29005 79 ft 19 kts 233°
2026-04-27 10:58 43.53369 16.28847 81 ft 21 kts 233°
2026-04-27 10:58 43.53292 16.28707 80 ft 14 kts 233°
2026-04-27 10:58 43.53232 16.28631 76 ft 10 kts 189°
2026-04-27 10:58 43.53212 16.28580 75 ft 5 kts 318°
2026-04-27 10:59 43.53234 16.28588 75 ft 5 kts 50°
2026-04-27 10:59 43.53252 16.28634 75 ft 5 kts 53°
2026-04-27 10:59 43.53254 16.28636 75 ft 0 kts 53°
2026-04-27 11:00 43.53408 16.28917 72 ft 75 kts 52°
2026-04-27 11:00 43.53870 16.29753 74 ft 142 kts 52°
2026-04-27 11:00 43.54317 16.30540 229 ft 163 kts 54°
2026-04-27 11:00 43.55021 16.31748 1021 ft 166 kts 54°
2026-04-27 11:01 43.55701 16.33143 1576 ft 190 kts 71°
2026-04-27 11:01 43.55769 16.35083 1996 ft 215 kts 106°
2026-04-27 11:01 43.54937 16.36682 2962 ft 203 kts 152°
2026-04-27 11:01 43.53618 16.37038 3885 ft 195 kts 186°
2026-04-27 11:02 43.52279 16.37232 4539 ft 196 kts 151°
2026-04-27 11:02 43.51091 16.38155 5149 ft 199 kts 150°
2026-04-27 11:02 43.49856 16.39025 5466 ft 200 kts 150°
2026-04-27 11:02 43.48617 16.39910 5486 ft 201 kts 150°
2026-04-27 11:03 43.47328 16.40647 5483 ft 204 kts 169°
2026-04-27 11:03 43.45936 16.40556 5513 ft 205 kts 192°
2026-04-27 11:03 43.44680 16.39625 5790 ft 211 kts 229°
2026-04-27 11:03 43.43788 16.38022 6412 ft 211 kts 232°
2026-04-27 11:04 43.42914 16.36396 6952 ft 213 kts 241°
2026-04-27 11:04 43.42638 16.34439 7408 ft 211 kts 281°
2026-04-27 11:04 43.43300 16.32624 7558 ft 223 kts 319°
2026-04-27 11:04 43.44703 16.31680 7822 ft 231 kts 350°
2026-04-27 11:05 43.46309 16.31279 8256 ft 238 kts 351°
2026-04-27 11:05 43.47935 16.30880 8901 ft 236 kts 351°
2026-04-27 11:05 43.49556 16.30483 9512 ft 237 kts 352°
2026-04-27 11:05 43.51228 16.30334 9832 ft 253 kts
2026-04-27 11:06 43.53020 16.30362 10232 ft 260 kts
2026-04-27 11:06 43.54863 16.30407 10621 ft 273 kts
2026-04-27 11:06 43.56852 16.30437 10782 ft 298 kts
2026-04-27 11:06 43.59000 16.30450 10956 ft 320 kts
2026-04-27 11:07 43.61303 16.30451 11126 ft 342 kts
2026-04-27 11:07 43.63733 16.30448 11482 ft 355 kts
2026-04-27 11:07 43.66219 16.30444 12139 ft 358 kts 360°
2026-04-27 11:07 43.68715 16.30441 12903 ft 360 kts 360°
2026-04-27 11:08 43.71238 16.30438 13587 ft 364 kts 359°
2026-04-27 11:08 43.73788 16.30436 14263 ft 368 kts 359°
2026-04-27 11:08 43.76356 16.30433 14975 ft 370 kts 359°
2026-04-27 11:08 43.78944 16.30431 15655 ft 374 kts 359°
2026-04-27 11:09 43.81528 16.30428 16287 ft 378 kts 359°
2026-04-27 11:09 43.84170 16.30427 16914 ft 382 kts 359°
2026-04-27 11:09 43.86848 16.30424 17576 ft 385 kts 359°
2026-04-27 11:09 43.89538 16.30422 18221 ft 389 kts 359°
2026-04-27 11:10 43.92259 16.30419 18798 ft 392 kts 359°
2026-04-27 11:10 43.95001 16.30417 19362 ft 395 kts 359°
2026-04-27 11:10 43.97759 16.30414 19919 ft 398 kts 359°
2026-04-27 11:10 44.00544 16.30412 20465 ft 401 kts 359°
2026-04-27 11:11 44.03347 16.30410 20988 ft 405 kts 359°
2026-04-27 11:11 44.06179 16.30408 21504 ft 408 kts 360°
2026-04-27 11:11 44.09025 16.30405 22027 ft 411 kts 360°
2026-04-27 11:11 44.11858 16.30403 22548 ft 413 kts 360°
2026-04-27 11:12 44.14747 16.30278 23047 ft 416 kts 352°
2026-04-27 11:12 44.17531 16.29160 23560 ft 418 kts 338°
2026-04-27 11:12 44.20234 16.27609 24036 ft 421 kts 337°
2026-04-27 11:12 44.22944 16.26017 24430 ft 424 kts 337°
2026-04-27 11:13 44.25670 16.24412 24844 ft 426 kts 337°
2026-04-27 11:13 44.28410 16.22809 25266 ft 427 kts 337°
2026-04-27 11:13 44.31155 16.21215 25687 ft 429 kts 337°
2026-04-27 11:13 44.33934 16.19611 26061 ft 432 kts 338°
2026-04-27 11:14 44.36723 16.18008 26426 ft 435 kts 338°
2026-04-27 11:14 44.39529 16.16398 26794 ft 437 kts 338°
2026-04-27 11:14 44.42345 16.14783 27172 ft 439 kts 337°
2026-04-27 11:14 44.45173 16.13159 27514 ft 441 kts 337°
2026-04-27 11:15 44.48019 16.11523 27877 ft 443 kts 337°
2026-04-27 11:15 44.50872 16.09882 28228 ft 444 kts 337°
2026-04-27 11:15 44.53741 16.08229 28575 ft 446 kts 337°
2026-04-27 11:15 44.56623 16.06567 28903 ft 448 kts 337°
2026-04-27 11:16 44.59478 16.04918 29207 ft 450 kts 337°
2026-04-27 11:16 44.62380 16.03241 29625 ft 450 kts 337°
2026-04-27 11:16 44.65266 16.01572 30132 ft 447 kts 337°
2026-04-27 11:16 44.68134 15.99910 30607 ft 444 kts 337°
2026-04-27 11:17 44.70986 15.98256 30989 ft 443 kts 337°
2026-04-27 11:17 44.73834 15.96602 31338 ft 443 kts 337°
2026-04-27 11:17 44.76680 15.94948 31696 ft 442 kts 337°
2026-04-27 11:17 44.79515 15.93299 32049 ft 441 kts 337°
2026-04-27 11:18 44.82356 15.91644 32404 ft 440 kts 337°
2026-04-27 11:18 44.85182 15.89997 32796 ft 439 kts 337°
2026-04-27 11:18 44.87999 15.88353 33161 ft 438 kts 337°
2026-04-27 11:18 44.90812 15.86709 33499 ft 437 kts 337°
2026-04-27 11:19 44.93580 15.85090 33855 ft 436 kts 337°
2026-04-27 11:19 44.96383 15.83449 34211 ft 434 kts 336°
2026-04-27 11:19 44.99170 15.81815 34505 ft 433 kts 337°
2026-04-27 11:19 45.01958 15.80179 34732 ft 434 kts 336°
2026-04-27 11:20 45.04747 15.78541 34985 ft 434 kts 336°
2026-04-27 11:20 45.07535 15.76901 35279 ft 432 kts 336°
2026-04-27 11:20 45.10307 15.75270 35547 ft 431 kts 336°
2026-04-27 11:20 45.13080 15.73637 35767 ft 431 kts 336°
2026-04-27 11:21 45.15854 15.72000 36003 ft 431 kts 336°
2026-04-27 11:21 45.18622 15.70365 36262 ft 430 kts 336°
2026-04-27 11:21 45.21385 15.68732 36523 ft 430 kts 336°
2026-04-27 11:21 45.24104 15.67123 36742 ft 429 kts 336°
2026-04-27 11:22 45.26899 15.65467 36954 ft 429 kts 336°
2026-04-27 11:22 45.29652 15.63835 37193 ft 429 kts 336°
2026-04-27 11:22 45.32364 15.62225 37445 ft 427 kts 336°
2026-04-27 11:22 45.35106 15.60596 37675 ft 427 kts 336°
2026-04-27 11:23 45.37848 15.58964 37870 ft 427 kts 336°
2026-04-27 11:23 45.40597 15.57328 38081 ft 426 kts 336°
2026-04-27 11:23 45.43337 15.55694 38211 ft 428 kts 336°
2026-04-27 11:23 45.46094 15.54048 38189 ft 429 kts 336°
2026-04-27 11:24 45.51584 15.50767 38208 ft 426 kts 336°
2026-04-27 11:24 45.57035 15.47502 38198 ft 423 kts 336°
2026-04-27 11:25 45.62441 15.44257 38210 ft 420 kts 336°
2026-04-27 11:25 45.67791 15.41038 38199 ft 419 kts 336°
2026-04-27 11:26 45.73161 15.37802 38207 ft 418 kts 336°
2026-04-27 11:26 45.78570 15.34705 38208 ft 420 kts 342°
2026-04-27 11:27 45.84202 15.32397 38216 ft 422 kts 343°
2026-04-27 11:27 45.89874 15.30142 38212 ft 424 kts 343°
2026-04-27 11:28 45.95573 15.27846 38209 ft 426 kts 342°
2026-04-27 11:28 46.01288 15.25516 38207 ft 428 kts 342°
2026-04-27 11:29 46.07027 15.23162 38205 ft 429 kts 342°
2026-04-27 11:29 46.12767 15.20801 38198 ft 429 kts 342°
2026-04-27 11:30 46.18476 15.18448 38191 ft 429 kts 342°
2026-04-27 11:30 46.24206 15.16081 38189 ft 428 kts 342°
2026-04-27 11:31 46.29924 15.13715 38190 ft 426 kts 342°
2026-04-27 11:31 46.35639 15.11344 38186 ft 426 kts 342°
2026-04-27 11:32 46.41288 15.08997 38183 ft 425 kts 342°
2026-04-27 11:32 46.46966 15.06631 38185 ft 424 kts 342°
2026-04-27 11:33 46.52635 15.04264 38189 ft 423 kts 342°
2026-04-27 11:33 46.58298 15.01895 38186 ft 422 kts 342°
2026-04-27 11:34 46.63941 14.99529 38176 ft 422 kts 342°
2026-04-27 11:34 46.69593 14.97153 38182 ft 422 kts 342°
2026-04-27 11:35 46.75251 14.94770 38178 ft 424 kts 342°
2026-04-27 11:35 46.80922 14.92377 38184 ft 424 kts 342°
2026-04-27 11:36 46.86563 14.89991 38177 ft 425 kts 342°
2026-04-27 11:36 46.92265 14.87574 38176 ft 426 kts 342°
2026-04-27 11:37 46.97988 14.85142 38162 ft 427 kts 342°
2026-04-27 11:37 47.03663 14.82726 38155 ft 427 kts 342°
2026-04-27 11:38 47.09370 14.80291 38162 ft 426 kts 342°
2026-04-27 11:38 47.15078 14.77849 38159 ft 427 kts 342°
2026-04-27 11:39 47.20798 14.75397 38156 ft 428 kts 342°
2026-04-27 11:39 47.26484 14.72954 38158 ft 427 kts 342°
2026-04-27 11:40 47.32192 14.70497 38162 ft 427 kts 342°
2026-04-27 11:40 47.37897 14.68035 38162 ft 427 kts 342°
2026-04-27 11:41 47.43575 14.65579 38166 ft 427 kts 342°
2026-04-27 11:41 47.49276 14.63108 38165 ft 426 kts 342°
2026-04-27 11:42 47.54965 14.60635 38188 ft 426 kts 342°
2026-04-27 11:42 47.60648 14.58160 38183 ft 425 kts 342°
2026-04-27 11:43 47.66288 14.55698 38186 ft 424 kts 341°
2026-04-27 11:43 47.71978 14.53209 38199 ft 423 kts 342°
2026-04-27 11:44 47.77607 14.50741 38199 ft 422 kts 341°
2026-04-27 11:44 47.83229 14.48270 38212 ft 421 kts 341°
2026-04-27 11:45 47.87887 14.46218 38211 ft 419 kts 341°
2026-04-27 11:45 47.93129 14.42576 38206 ft 415 kts 324°
2026-04-27 11:46 47.98471 14.36477 38219 ft 413 kts 321°
2026-04-27 11:46 48.02237 14.32079 38215 ft 413 kts 321°
2026-04-27 11:47 48.06777 14.26808 38215 ft 413 kts 322°
2026-04-27 11:47 48.11332 14.21539 38216 ft 413 kts 322°
2026-04-27 11:48 48.15888 14.16268 38213 ft 414 kts 322°
2026-04-27 11:48 48.20415 14.11019 38216 ft 414 kts 321°
2026-04-27 11:49 48.24975 14.05719 38207 ft 415 kts 322°
2026-04-27 11:49 48.29531 14.00411 38211 ft 415 kts 322°
2026-04-27 11:50 48.34084 13.95095 38206 ft 414 kts 322°
2026-04-27 11:50 48.38629 13.89775 38213 ft 413 kts 322°
2026-04-27 11:51 48.43159 13.84460 38216 ft 412 kts 321°
2026-04-27 11:52 48.49934 13.76488 38207 ft 411 kts 321°
2026-04-27 11:52 48.54438 13.71173 38203 ft 410 kts 321°
2026-04-27 11:53 48.58933 13.65855 38208 ft 410 kts 321°
2026-04-27 11:53 48.63421 13.60535 38207 ft 409 kts 321°
2026-04-27 11:54 48.67685 13.54928 38212 ft 409 kts 315°
2026-04-27 11:54 48.71716 13.48838 38200 ft 409 kts 314°
2026-04-27 11:55 48.75725 13.42722 38201 ft 409 kts 315°
2026-04-27 11:55 48.79750 13.36623 38206 ft 409 kts 315°
2026-04-27 11:56 48.83780 13.30532 38204 ft 409 kts 315°
2026-04-27 11:56 48.87814 13.24429 38202 ft 409 kts 315°
2026-04-27 11:57 48.91817 13.18360 38204 ft 409 kts 315°
2026-04-27 11:57 48.95861 13.12211 38210 ft 408 kts 314°
2026-04-27 11:58 48.99860 13.06118 38201 ft 409 kts 314°
2026-04-27 11:58 49.03878 12.99979 38211 ft 408 kts 314°
2026-04-27 11:59 49.07892 12.93832 38207 ft 408 kts 314°
2026-04-27 11:59 49.11894 12.87689 38210 ft 408 kts 314°
2026-04-27 12:00 49.15898 12.81527 38204 ft 408 kts 314°
2026-04-27 12:00 49.19888 12.75372 38207 ft 407 kts 314°
2026-04-27 12:01 49.23847 12.69249 38217 ft 407 kts 314°
2026-04-27 12:01 49.27823 12.63085 38211 ft 407 kts 314°
2026-04-27 12:02 49.31803 12.56903 38208 ft 407 kts 314°
2026-04-27 12:02 49.35581 12.50469 38213 ft 406 kts 308°
2026-04-27 12:03 49.39075 12.43661 38212 ft 406 kts 307°
2026-04-27 12:03 49.42547 12.36818 38206 ft 406 kts 307°
2026-04-27 12:04 49.46028 12.29989 38206 ft 406 kts 308°
2026-04-27 12:04 49.49514 12.23165 38207 ft 406 kts 308°
2026-04-27 12:05 49.52984 12.16370 38197 ft 406 kts 307°
2026-04-27 12:05 49.56465 12.09535 38192 ft 406 kts 307°
2026-04-27 12:06 49.59945 12.02686 38205 ft 406 kts 307°
2026-04-27 12:06 49.63419 11.95830 38188 ft 406 kts 307°
2026-04-27 12:07 49.66893 11.88958 38194 ft 406 kts 307°
2026-04-27 12:07 49.70358 11.82083 38198 ft 406 kts 307°
2026-04-27 12:08 49.73828 11.75183 38199 ft 405 kts 307°
2026-04-27 12:08 49.77285 11.68289 38193 ft 406 kts 307°
2026-04-27 12:09 49.80740 11.61380 38208 ft 405 kts 307°
2026-04-27 12:09 49.84192 11.54461 38200 ft 406 kts 306°
2026-04-27 12:10 49.87611 11.47589 38215 ft 405 kts 306°
2026-04-27 12:10 49.91054 11.40651 38217 ft 406 kts 306°
2026-04-27 12:11 49.94495 11.33701 38219 ft 406 kts 306°
2026-04-27 12:11 49.97930 11.26742 38214 ft 406 kts 306°
2026-04-27 12:12 50.01376 11.19742 38214 ft 406 kts 306°
2026-04-27 12:12 50.04793 11.12784 38222 ft 406 kts 306°
2026-04-27 12:13 50.08220 11.05785 38223 ft 406 kts 306°
2026-04-27 12:13 50.11643 10.98777 38221 ft 407 kts 306°
2026-04-27 12:14 50.15070 10.91743 38231 ft 407 kts 306°
2026-04-27 12:14 50.18486 10.84711 38229 ft 407 kts 305°
2026-04-27 12:15 50.21898 10.77671 38223 ft 406 kts 305°
2026-04-27 12:15 50.25305 10.70620 38236 ft 406 kts 305°
2026-04-27 12:16 50.28706 10.63565 38225 ft 407 kts 305°
2026-04-27 12:16 50.32133 10.56518 38239 ft 407 kts 307°
2026-04-27 12:17 50.35852 10.49823 38234 ft 407 kts 310°
2026-04-27 12:17 50.39653 10.43230 38233 ft 407 kts 309°
2026-04-27 12:18 50.43406 10.36644 38240 ft 407 kts 309°
2026-04-27 12:18 50.47164 10.29970 38230 ft 408 kts 309°
2026-04-27 12:19 50.50911 10.23273 38245 ft 408 kts 309°
2026-04-27 12:19 50.54654 10.16558 38231 ft 408 kts 309°
2026-04-27 12:20 50.58395 10.09828 38237 ft 408 kts 309°
2026-04-27 12:20 50.62113 10.03124 38240 ft 409 kts 309°
2026-04-27 12:21 50.65851 9.96364 38241 ft 409 kts 309°
2026-04-27 12:21 50.69592 9.89582 38236 ft 410 kts 309°
2026-04-27 12:22 50.73337 9.82777 38241 ft 410 kts 308°
2026-04-27 12:22 50.77079 9.75956 38239 ft 410 kts 308°
2026-04-27 12:23 50.80789 9.69178 38244 ft 410 kts 308°
2026-04-27 12:23 50.84526 9.62331 38240 ft 411 kts 308°
2026-04-27 12:24 50.88256 9.55478 38245 ft 411 kts 308°
2026-04-27 12:24 50.91982 9.48616 38265 ft 411 kts 308°
2026-04-27 12:25 50.95714 9.41723 38257 ft 412 kts 308°
2026-04-27 12:25 50.99423 9.34854 38270 ft 412 kts 308°
2026-04-27 12:26 51.03157 9.27921 38265 ft 413 kts 308°
2026-04-27 12:26 51.06887 9.20976 38260 ft 413 kts 308°
2026-04-27 12:27 51.09982 9.15198 38264 ft 413 kts 308°
2026-04-27 12:27 51.13705 9.08232 38262 ft 413 kts 308°
2026-04-27 12:28 51.18046 9.00086 38262 ft 412 kts 308°
2026-04-27 12:28 51.21128 8.94286 38252 ft 413 kts 308°
2026-04-27 12:29 51.25440 8.86150 38262 ft 413 kts 308°
2026-04-27 12:29 51.28548 8.80267 38249 ft 413 kts 307°
2026-04-27 12:30 51.32235 8.73273 38254 ft 414 kts 307°
2026-04-27 12:30 51.35941 8.66225 38251 ft 414 kts 307°
2026-04-27 12:31 51.39648 8.59153 38255 ft 415 kts 307°
2026-04-27 12:31 51.43352 8.52069 38259 ft 415 kts 307°
2026-04-27 12:32 51.47057 8.44963 38257 ft 415 kts 307°
2026-04-27 12:32 51.50755 8.37850 38266 ft 415 kts 307°
2026-04-27 12:33 51.54451 8.30720 38261 ft 416 kts 307°
2026-04-27 12:33 51.58148 8.23570 38263 ft 416 kts 307°
2026-04-27 12:34 51.61851 8.16387 38260 ft 417 kts 307°
2026-04-27 12:34 51.65550 8.09191 38266 ft 417 kts 307°
2026-04-27 12:35 51.69246 8.01984 38258 ft 417 kts 307°
2026-04-27 12:35 51.72934 7.94768 38265 ft 417 kts 307°
2026-04-27 12:36 51.76627 7.87524 38257 ft 417 kts 307°
2026-04-27 12:36 51.80311 7.80277 38267 ft 417 kts 307°
2026-04-27 12:37 51.83990 7.73018 38268 ft 417 kts 307°
2026-04-27 12:37 51.87642 7.65792 38274 ft 417 kts 306°
2026-04-27 12:38 51.91316 7.58503 38271 ft 417 kts 306°
2026-04-27 12:38 51.93153 7.54849 38093 ft 421 kts 306°
2026-04-27 12:38 51.95009 7.51152 37599 ft 423 kts 306°
2026-04-27 12:38 51.96865 7.47452 37015 ft 420 kts 306°
2026-04-27 12:39 51.98703 7.43782 36432 ft 419 kts 306°
2026-04-27 12:39 52.00545 7.40101 35806 ft 418 kts 306°
2026-04-27 12:39 52.02375 7.36435 35159 ft 419 kts 305°
2026-04-27 12:39 52.04182 7.32720 34517 ft 417 kts 301°
2026-04-27 12:40 52.05628 7.28685 33945 ft 411 kts 291°
2026-04-27 12:40 52.06772 7.24449 33293 ft 408 kts 291°
2026-04-27 12:40 52.07910 7.20209 32487 ft 410 kts 291°
2026-04-27 12:40 52.09059 7.15940 31601 ft 414 kts 291°
2026-04-27 12:41 52.10211 7.11681 30746 ft 418 kts 291°
2026-04-27 12:41 52.11390 7.07338 29849 ft 420 kts 291°
2026-04-27 12:41 52.12569 7.03004 29106 ft 417 kts 291°
2026-04-27 12:41 52.13736 6.98717 28504 ft 412 kts 291°
2026-04-27 12:42 52.14889 6.94478 27895 ft 407 kts 291°
2026-04-27 12:42 52.16027 6.90286 27253 ft 404 kts 291°
2026-04-27 12:42 52.17160 6.86103 26608 ft 401 kts 292°
2026-04-27 12:42 52.18281 6.81954 25986 ft 398 kts 292°
2026-04-27 12:43 52.19393 6.77829 25388 ft 395 kts 292°
2026-04-27 12:43 52.20495 6.73736 24805 ft 392 kts 292°
2026-04-27 12:43 52.21587 6.69668 24229 ft 390 kts 292°
2026-04-27 12:43 52.22671 6.65628 23596 ft 388 kts 292°
2026-04-27 12:44 52.23736 6.61647 22894 ft 387 kts 292°
2026-04-27 12:44 52.24811 6.57628 22295 ft 384 kts 292°
2026-04-27 12:44 52.25873 6.53648 21734 ft 380 kts 292°
2026-04-27 12:44 52.26922 6.49710 21183 ft 377 kts 292°
2026-04-27 12:45 52.27962 6.45801 20658 ft 373 kts 292°
2026-04-27 12:45 52.28991 6.41927 20132 ft 370 kts 292°
2026-04-27 12:45 52.30010 6.38082 19618 ft 367 kts 292°
2026-04-27 12:45 52.31020 6.34262 19107 ft 365 kts 292°
2026-04-27 12:46 52.32024 6.30457 18586 ft 364 kts 292°
2026-04-27 12:46 52.33026 6.26658 18003 ft 364 kts 292°
2026-04-27 12:46 52.34024 6.22866 17456 ft 362 kts 292°
2026-04-27 12:46 52.35015 6.19095 16936 ft 359 kts 292°
2026-04-27 12:47 52.35996 6.15356 16425 ft 356 kts 292°
2026-04-27 12:47 52.36967 6.11651 15930 ft 353 kts 291°
2026-04-27 12:47 52.37932 6.07965 15434 ft 350 kts 291°
2026-04-27 12:47 52.38888 6.04303 14950 ft 348 kts 291°
2026-04-27 12:48 52.39835 6.00671 14466 ft 345 kts 291°
2026-04-27 12:48 52.40774 5.97061 13977 ft 343 kts 291°
2026-04-27 12:48 52.41647 5.93441 13438 ft 341 kts 283°
2026-04-27 12:48 52.41818 5.89654 12958 ft 337 kts 263°
2026-04-27 12:49 52.41299 5.85924 12549 ft 336 kts 255°
2026-04-27 12:49 52.40624 5.82260 12166 ft 335 kts 253°
2026-04-27 12:49 52.39914 5.78579 11833 ft 337 kts 253°
2026-04-27 12:49 52.39203 5.74937 11559 ft 342 kts 253°
2026-04-27 12:50 52.38472 5.71215 11320 ft 344 kts 252°
2026-04-27 12:50 52.37736 5.67500 11067 ft 342 kts 253°
2026-04-27 12:50 52.37001 5.63801 10824 ft 341 kts 253°
2026-04-27 12:50 52.36265 5.60108 10579 ft 341 kts 253°
2026-04-27 12:51 52.35525 5.56422 10401 ft 337 kts 253°
2026-04-27 12:51 52.34803 5.52846 10323 ft 323 kts 253°
2026-04-27 12:51 52.34112 5.49462 10184 ft 304 kts 252°
2026-04-27 12:51 52.33459 5.46287 10053 ft 286 kts 252°
2026-04-27 12:52 52.32831 5.43238 9618 ft 281 kts 252°
2026-04-27 12:52 52.32208 5.40211 9088 ft 280 kts 252°
2026-04-27 12:52 52.31583 5.37182 8760 ft 281 kts 253°
2026-04-27 12:52 52.30962 5.34179 8542 ft 277 kts 252°
2026-04-27 12:53 52.29729 5.28226 7899 ft 276 kts 253°
2026-04-27 12:53 52.29111 5.25259 7706 ft 275 kts 252°
2026-04-27 12:53 52.28495 5.22311 7462 ft 274 kts 252°
2026-04-27 12:54 52.27877 5.19369 7182 ft 273 kts 252°
2026-04-27 12:54 52.27271 5.16498 6966 ft 272 kts 252°
2026-04-27 12:54 52.26651 5.13582 6700 ft 272 kts 251°
2026-04-27 12:54 52.25934 5.10729 6374 ft 271 kts 248°
2026-04-27 12:55 52.25174 5.07904 6074 ft 272 kts 248°
2026-04-27 12:55 52.24398 5.05047 5709 ft 275 kts 247°
2026-04-27 12:55 52.23630 5.02221 5481 ft 272 kts 246°
2026-04-27 12:55 52.22848 4.99432 5251 ft 268 kts 247°
2026-04-27 12:56 52.22088 4.96643 4927 ft 269 kts 247°
2026-04-27 12:56 52.21331 4.93846 4603 ft 269 kts 247°
2026-04-27 12:56 52.20580 4.91062 4419 ft 267 kts 247°
2026-04-27 12:56 52.19826 4.88270 4359 ft 271 kts 248°
2026-04-27 12:57 52.19070 4.85469 4299 ft 270 kts 247°
2026-04-27 12:57 52.18325 4.82702 4274 ft 262 kts 248°
2026-04-27 12:57 52.17591 4.79956 3777 ft 265 kts 247°
2026-04-27 12:57 52.16818 4.77110 3491 ft 255 kts 244°
2026-04-27 12:58 52.16118 4.74697 3433 ft 240 kts 247°
2026-04-27 12:58 52.15447 4.72233 3430 ft 240 kts 247°
2026-04-27 12:58 52.14779 4.69736 3227 ft 241 kts 248°
2026-04-27 12:58 52.14130 4.67255 3064 ft 239 kts 248°
2026-04-27 12:59 52.13479 4.64790 3047 ft 238 kts 247°
2026-04-27 12:59 52.12796 4.62291 2978 ft 242 kts 245°
2026-04-27 12:59 52.12117 4.59834 2956 ft 236 kts 247°
2026-04-27 12:59 52.11470 4.57382 2966 ft 235 kts 251°
2026-04-27 13:00 52.11310 4.54792 2962 ft 230 kts 283°
2026-04-27 13:00 52.12006 4.52566 2957 ft 215 kts 317°
2026-04-27 13:00 52.13241 4.51483 2972 ft 195 kts 353°
2026-04-27 13:00 52.14546 4.51394 3008 ft 185 kts
2026-04-27 13:01 52.15841 4.51414 2983 ft 185 kts
2026-04-27 13:01 52.17151 4.51477 2801 ft 188 kts
2026-04-27 13:01 52.18434 4.51614 2619 ft 182 kts 11°
2026-04-27 13:01 52.19563 4.52457 2361 ft 178 kts 33°
2026-04-27 13:02 52.20598 4.53535 2037 ft 179 kts 32°
2026-04-27 13:02 52.21633 4.54595 2014 ft 176 kts 32°
2026-04-27 13:02 52.22671 4.55657 1993 ft 175 kts 33°
2026-04-27 13:02 52.23659 4.56869 1978 ft 184 kts 52°
2026-04-27 13:03 52.24055 4.58795 1965 ft 180 kts 90°
2026-04-27 13:03 52.24109 4.60810 1777 ft 177 kts 67°
2026-04-27 13:03 52.24718 4.62486 1608 ft 171 kts 59°
2026-04-27 13:03 52.25267 4.64236 1391 ft 176 kts 58°
2026-04-27 13:04 52.25912 4.65891 1162 ft 170 kts 56°
2026-04-27 13:04 52.26520 4.67469 924 ft 162 kts 57°
2026-04-27 13:04 52.27096 4.68977 720 ft 152 kts 58°
2026-04-27 13:04 52.27642 4.70396 540 ft 144 kts 56°
2026-04-27 13:05 52.28176 4.71798 303 ft 144 kts 57°
2026-04-27 13:05 52.28696 4.73160 108 ft 139 kts 57°
2026-04-27 13:05 52.29199 4.74473 1 ft 126 kts 57°
2026-04-27 13:05 52.29553 4.75392 -3 ft 65 kts 58°
2026-04-27 13:06 52.29711 4.75739 -3 ft 26 kts 35°
2026-04-27 13:06 52.29818 4.75834 -2 ft 15 kts 28°
2026-04-27 13:06 52.29845 4.75858 -2 ft 3 kts 27°
2026-04-27 13:06 52.29865 4.75875 -2 ft 3 kts 27°
2026-04-27 13:07 52.29885 4.75892 -2 ft 3 kts 26°
2026-04-27 13:07 52.29908 4.75910 -2 ft 5 kts 27°
2026-04-27 13:07 52.29944 4.75940 -2 ft 7 kts 27°
2026-04-27 13:07 52.29991 4.75992 -2 ft 9 kts 46°
2026-04-27 13:08 52.30024 4.76073 -2 ft 8 kts 58°
2026-04-27 13:08 52.30053 4.76148 -2 ft 8 kts 58°
2026-04-27 13:08 52.30077 4.76210 -2 ft 5 kts 58°
2026-04-27 13:08 52.30096 4.76259 -2 ft 5 kts 57°
2026-04-27 13:09 52.30115 4.76308 -2 ft 5 kts 57°
2026-04-27 13:09 52.30134 4.76356 -2 ft 5 kts 58°
2026-04-27 13:09 52.30153 4.76405 -2 ft 5 kts 58°
2026-04-27 13:09 52.30166 4.76439 -2 ft 5 kts 58°
2026-04-27 13:10 52.30193 4.76510 -2 ft 6 kts 57°
2026-04-27 13:10 52.30214 4.76563 -2 ft 5 kts 57°
2026-04-27 13:10 52.30234 4.76615 -2 ft 6 kts 57°
2026-04-27 13:10 52.30250 4.76656 -2 ft 7 kts 59°
2026-04-27 13:11 52.30278 4.76732 -2 ft 8 kts 58°
2026-04-27 13:11 52.30309 4.76812 -2 ft 8 kts 58°
2026-04-27 13:11 52.30340 4.76890 -2 ft 8 kts 57°
2026-04-27 13:11 52.30372 4.76974 -2 ft 10 kts 57°
2026-04-27 13:12 52.30411 4.77078 -2 ft 12 kts 59°
2026-04-27 13:12 52.30457 4.77197 -2 ft 13 kts 56°
2026-04-27 13:12 52.30502 4.77315 -2 ft 12 kts 59°
2026-04-27 13:12 52.30547 4.77432 -2 ft 12 kts 58°
2026-04-27 13:13 52.30595 4.77540 -2 ft 12 kts 44°
2026-04-27 13:13 52.30668 4.77588 -2 ft 11 kts
2026-04-27 13:13 52.30745 4.77595 -2 ft 11 kts
2026-04-27 13:13 52.30817 4.77576 -2 ft 11 kts 318°
2026-04-27 13:14 52.30835 4.77462 -2 ft 10 kts 272°
2026-04-27 13:14 52.30839 4.77343 -2 ft 10 kts 273°
2026-04-27 13:14 52.30842 4.77243 -2 ft 5 kts 273°
2026-04-27 13:14 52.30843 4.77204 -2 ft 3 kts 273°
2026-04-27 13:15 52.30842 4.77189 -2 ft 0 kts 255°
2026-04-27 13:15 52.30834 4.77177 -2 ft 3 kts 217°
2026-04-27 13:15 52.30812 4.77168 -2 ft 4 kts 187°
2026-04-27 13:15 52.30791 4.77166 -2 ft 1 kts 184°